Indianapolis, IN

7:57 AM EDT on September 18, 2019 (GMT -0400)
Indianapolis Terry

Weather History for KTYQ - May, 2019

Change the Weather History Date:

Tuesday, May 28, 2019

  Actual Average (KEYE) Record (KEYE)
Temperature  
Mean Temperature 76 °F -  
Max Temperature 84 °F 70 °F 96 °F (2018)
Min Temperature 69 °F 53 °F 46 °F (2008)
Cooling Degree Days 12    
Growing Degree Days 26 (Base 50)    
Moisture  
Dew Point 68 °F    
Average Humidity 80    
Maximum Humidity 93    
Minimum Humidity 55    
Precipitation  
Precipitation 0.00 in - - ()
Sea Level Pressure  
Sea Level Pressure 29.77 in    
Wind  
Wind Speed 10 mph ()    
Max Wind Speed 21 mph    
Max Gust Speed 31 mph    
Visibility 10.0 miles    
Events Thunderstorm    
Averages and records for this station are not official NWS values.
T = Trace of Precipitation, MM = Missing Value Source: Averaged Metar Reports

Daily Weather History Graph

Daily Weather History Graph

Search for Another Location

Airport or City:

Astronomy

May. 28, 2019 Rise Set
Actual Time 6:20 AM EDT 9:04 PM EDT
Civil Twilight 5:48 AM EDT 9:36 PM EDT
Nautical Twilight 5:08 AM EDT 10:16 PM EDT
Astronomical Twilight 4:23 AM EDT 11:02 PM EDT
Moon 3:31 AM EDT (5/28) 3:14 PM EDT (5/28)
Length of Visible Light 15h 48m
Length of Day
14h 44m
Waning Crescent, 32% of the Moon is Illuminated
May 28
Waning Crescent
Jun 3
New
Jun 10
First Quarter
Jun 17
Full
Jun 25
Last Quarter

Hourly Weather History & Observations

Time (EDT) Temp. Heat Index Dew Point Humidity Pressure Visibility Wind Dir Wind Speed Gust Speed Precip Events Conditions
12:15 AM 71.4 °F - 68.9 °F 92% 29.79 in 10.0 mi SSW 8.1 mph - N/A   Mostly Cloudy
12:35 AM 71.6 °F - 69.1 °F 92% 29.79 in 10.0 mi South 6.9 mph - N/A   Overcast
12:55 AM 72.0 °F - 69.3 °F 91% 29.79 in 10.0 mi SSW 8.1 mph - N/A   Mostly Cloudy
1:15 AM 72.1 °F - 69.1 °F 90% 29.78 in 10.0 mi SSW 9.2 mph - N/A   Scattered Clouds
1:35 AM 72.5 °F - 68.9 °F 88% 29.78 in 10.0 mi SSW 10.4 mph - N/A   Scattered Clouds
1:55 AM 72.5 °F - 68.7 °F 88% 29.78 in 10.0 mi SSW 9.2 mph - N/A   Scattered Clouds
2:15 AM 72.7 °F - 68.7 °F 87% 29.78 in 10.0 mi SSW 10.4 mph - N/A   Overcast
2:35 AM 72.1 °F - 68.2 °F 87% 29.77 in 10.0 mi SW 10.4 mph - N/A   Scattered Clouds
2:55 AM 72.3 °F - 68.0 °F 86% 29.76 in 10.0 mi SW 11.5 mph - N/A   Scattered Clouds
3:15 AM 72.0 °F - 67.6 °F 86% 29.76 in 10.0 mi SW 11.5 mph - N/A   Scattered Clouds
3:35 AM 71.6 °F - 67.5 °F 87% 29.76 in 10.0 mi SW 11.5 mph - N/A   Clear
3:55 AM 71.2 °F - 67.5 °F 88% 29.76 in 10.0 mi SW 9.2 mph - N/A   Clear
4:15 AM 70.9 °F - 67.5 °F 89% 29.76 in 10.0 mi SW 10.4 mph - N/A   Clear
4:35 AM 70.7 °F - 67.5 °F 89% 29.77 in 10.0 mi WSW 12.7 mph 18.4 mph N/A   Clear
4:55 AM 70.5 °F - 67.3 °F 89% 29.76 in 10.0 mi SW 10.4 mph - N/A   Clear
5:15 AM 70.2 °F - 67.1 °F 90% 29.77 in 10.0 mi SW 11.5 mph - N/A   Clear
5:35 AM 70.3 °F - 67.1 °F 89% 29.76 in 10.0 mi SW 9.2 mph - N/A   Clear
5:55 AM 70.0 °F - 67.1 °F 91% 29.77 in 10.0 mi SW 11.5 mph - N/A   Clear
6:15 AM 69.8 °F - 67.1 °F 91% 29.77 in 10.0 mi SW 11.5 mph - N/A   Clear
6:35 AM 69.3 °F - 67.1 °F 93% 29.78 in 10.0 mi SW 9.2 mph - N/A   Clear
6:55 AM 69.4 °F - 67.3 °F 93% 29.78 in 10.0 mi SW 9.2 mph - N/A   Mostly Cloudy
7:15 AM 69.4 °F - 67.5 °F 93% 29.78 in 10.0 mi SW 10.4 mph - N/A   Mostly Cloudy
7:35 AM 69.8 °F - 67.8 °F 93% 29.79 in 10.0 mi SW 10.4 mph - N/A   Scattered Clouds
7:55 AM 71.1 °F - 68.0 °F 90% 29.79 in 10.0 mi SW 10.4 mph - N/A   Clear
8:15 AM 71.6 °F - 68.0 °F 88% 29.78 in 10.0 mi SW 11.5 mph 18.4 mph N/A   Clear
8:35 AM 73.0 °F - 68.5 °F 86% 29.78 in 10.0 mi SW 15.0 mph - N/A   Clear
8:55 AM 72.7 °F - 68.7 °F 87% 29.79 in 10.0 mi SW 13.8 mph 20.7 mph N/A   Clear
9:15 AM 73.0 °F - 68.5 °F 86% 29.79 in 10.0 mi SW 15.0 mph 20.7 mph N/A   Clear
9:35 AM 74.1 °F - 69.1 °F 84% 29.79 in 10.0 mi SW 12.7 mph 19.6 mph N/A   Clear
9:55 AM 75.0 °F - 70.0 °F 84% 29.78 in 10.0 mi SW 13.8 mph 17.3 mph N/A   Clear
10:15 AM 75.9 °F - 70.0 °F 82% 29.79 in 10.0 mi SW 12.7 mph 17.3 mph N/A   Clear
10:35 AM 76.3 °F - 69.8 °F 80% 29.79 in 10.0 mi SW 12.7 mph 18.4 mph N/A   Clear
10:55 AM 77.0 °F - 70.0 °F 79% 29.79 in 10.0 mi SW 15.0 mph - N/A   Clear
11:15 AM 78.1 °F - 70.5 °F 77% 29.79 in 10.0 mi WSW 16.1 mph 20.7 mph N/A   Clear
11:35 AM 79.3 °F - 70.9 °F 75% 29.79 in 10.0 mi WSW 15.0 mph 19.6 mph N/A   Clear
11:55 AM 79.5 °F - 70.0 °F 72% 29.79 in 10.0 mi WSW 11.5 mph 23.0 mph N/A   Clear
12:15 PM 79.5 °F - 70.3 °F 73% 29.79 in 10.0 mi WSW 10.4 mph 18.4 mph N/A   Clear
12:35 PM 80.8 °F 84.4 °F 70.7 °F 71% 29.79 in 10.0 mi SW 12.7 mph 23.0 mph N/A   Scattered Clouds
12:55 PM 79.7 °F - 70.0 °F 72% 29.79 in 10.0 mi WSW 12.7 mph 21.9 mph N/A   Scattered Clouds
1:15 PM 80.1 °F 83.6 °F 71.1 °F 74% 29.79 in 10.0 mi SW 10.4 mph - N/A   Mostly Cloudy
1:35 PM 81.7 °F 85.6 °F 70.5 °F 69% 29.79 in 10.0 mi SW 15.0 mph 20.7 mph N/A   Mostly Cloudy
1:55 PM 81.1 °F 84.9 °F 70.5 °F 70% 29.79 in 10.0 mi WSW 13.8 mph 17.3 mph N/A   Mostly Cloudy
2:15 PM 80.2 °F 83.6 °F 70.5 °F 72% 29.79 in 10.0 mi West 10.4 mph 17.3 mph N/A   Mostly Cloudy
2:35 PM 80.4 °F 84.1 °F 70.9 °F 73% 29.79 in 10.0 mi West 11.5 mph - N/A   Mostly Cloudy
2:55 PM 81.5 °F 85.5 °F 70.7 °F 70% 29.79 in 10.0 mi WSW 10.4 mph - N/A   Mostly Cloudy
3:15 PM 83.3 °F 87.1 °F 69.4 °F 63% 29.78 in 10.0 mi SW 19.6 mph 25.3 mph N/A   Scattered Clouds
3:35 PM 83.7 °F 87.0 °F 68.5 °F 60% 29.78 in 10.0 mi SW 11.5 mph 25.3 mph N/A   Scattered Clouds
3:55 PM 83.8 °F 86.7 °F 67.6 °F 58% 29.77 in 10.0 mi WSW 17.3 mph 25.3 mph N/A   Scattered Clouds
4:15 PM 83.8 °F 86.0 °F 66.2 °F 55% 29.76 in 10.0 mi SSW 19.6 mph 26.5 mph N/A   Clear
4:35 PM 84.0 °F 86.5 °F 66.6 °F 56% 29.76 in 10.0 mi WSW 12.7 mph 26.5 mph N/A   Clear
4:55 PM 84.0 °F 86.3 °F 66.2 °F 55% 29.74 in 10.0 mi SW 15.0 mph 24.2 mph N/A   Clear
5:15 PM 83.5 °F 85.7 °F 66.2 °F 56% 29.75 in 10.0 mi WSW 17.3 mph 26.5 mph N/A Thunderstorm Clear
5:35 PM 82.8 °F 84.7 °F 65.5 °F 56% 29.75 in 10.0 mi SSW 20.7 mph 26.5 mph N/A   Clear
5:55 PM 82.4 °F 84.1 °F 64.8 °F 55% 29.76 in 10.0 mi SW 20.7 mph 25.3 mph N/A   Clear
6:15 PM 81.0 °F 82.9 °F 65.3 °F 59% 29.77 in 10.0 mi WSW 15.0 mph 20.7 mph N/A   Scattered Clouds
6:35 PM 80.2 °F 81.9 °F 64.4 °F 58% 29.78 in 10.0 mi WSW 13.8 mph 24.2 mph N/A   Scattered Clouds
6:55 PM 73.6 °F - 70.2 °F 89% 29.74 in 10.0 mi ENE 8.1 mph 31.1 mph N/A   Mostly Cloudy
7:15 PM 75.2 °F - 70.3 °F 85% 29.73 in 10.0 mi East 5.8 mph - N/A   Scattered Clouds
7:35 PM 74.8 °F - 70.5 °F 86% 29.72 in 10.0 mi ENE 5.8 mph - N/A   Clear
7:55 PM 75.0 °F - 70.9 °F 87% 29.73 in 10.0 mi East 4.6 mph - N/A   Clear
8:15 PM 74.3 °F - 70.7 °F 88% 29.73 in 10.0 mi ESE 3.5 mph - N/A   Clear
8:35 PM 74.3 °F - 71.6 °F 91% 29.73 in 10.0 mi SE 5.8 mph - N/A   Clear
8:55 PM 73.0 °F - 70.5 °F 92% 29.72 in 10.0 mi South 9.2 mph - N/A   Clear
9:15 PM 74.8 °F - 66.4 °F 75% 29.72 in 10.0 mi SSW 8.1 mph - N/A   Clear
9:35 PM 75.2 °F - 65.5 °F 72% 29.73 in 10.0 mi SSW 10.4 mph - N/A   Clear
9:55 PM 76.1 °F - 65.3 °F 69% 29.74 in 10.0 mi SSW 8.1 mph - N/A   Clear
10:15 PM 73.9 °F - 65.8 °F 76% 29.76 in 10.0 mi WSW 3.5 mph - N/A   Clear
10:35 PM 73.6 °F - 66.4 °F 78% 29.75 in 10.0 mi SSW 5.8 mph - N/A   Scattered Clouds
10:55 PM 72.5 °F - 67.3 °F 84% 29.76 in 10.0 mi SSW 5.8 mph - N/A   Scattered Clouds
11:15 PM 71.1 °F - 67.5 °F 88% 29.77 in 10.0 mi SSW 4.6 mph - N/A   Clear
11:35 PM 70.9 °F - 67.6 °F 89% 29.77 in 10.0 mi South 5.8 mph - N/A   Clear
11:55 PM 71.1 °F - 68.0 °F 90% 29.78 in 10.0 mi SSW 4.6 mph - N/A   Scattered Clouds